Flag for Guernsey Weather past 2 weeks in St. Peter Port, Guernsey

50 °F


Feels Like: 47 °F
Forecast: 56 / 62 °F
Wind: 7 mph from Southeast

Location: Guernsey Airport

Current Time: Oct 9, 2015 at 4:49:01 AM

Latest Report: Oct 9, 2015 at 3:50 AM

Visibility: 10 mi

Pressure: 30.18 "Hg

Humidity: 76%

Dew point: 43 °F

Location of St. Peter PortLocation

Historic Weather in St. Peter Port — Graph


St. Peter Port temperature yesterday

Maximum temperature yesterday: 63 °F (at 2:50 PM)
Minimum temperature yesterday: 50 °F (at 8:20 PM)
Average temperature yesterday: 55 °F

Past Weeks' High & Low Weather Summary

High64 °F (Sep 28, 1:20 PM)100% (Sep 23, 8:50 PM)30.51 "Hg (Sep 23, 8:50 PM)
Low50 °F (Oct 8, 8:20 PM)49% (Sep 30, 12:20 PM)29.30 "Hg (Oct 6, 12:50 PM)
Average58 °F78%30.11 "Hg
* Reported Sep 23 8:20 PM — Oct 8 8:50 PM, St. Peter Port, Weather by CustomWeather, © 2015

Note: Actual official high and low records may vary slightly from our data, if they occured in-between our weather recording intervals... More about our weather records


St. Peter Port weather history for previous 24 hours

Time TempWeatherWind HumidityBarometerVisibility
8:50 PM
Thu, Oct 8
50 °FPassing clouds.5 mph88%30.21 "HgN/A
8:20 PM50 °FPassing clouds.5 mph88%30.21 "HgN/A
7:50 PM52 °FPassing clouds.3 mph94%30.21 "HgN/A
7:20 PM54 °FPassing clouds.No wind88%30.21 "HgN/A
6:50 PM54 °FPassing clouds.No wind88%30.21 "HgN/A
6:20 PM55 °FPassing clouds.No wind82%30.18 "HgN/A
5:50 PM55 °FPassing clouds.2 mph82%30.18 "HgN/A
5:20 PM57 °FPassing clouds.3 mph82%30.18 "HgN/A
4:50 PM57 °FPassing clouds.3 mph82%30.18 "HgN/A
4:20 PM57 °FPassing clouds.5 mph77%30.18 "HgN/A
3:50 PM57 °FPassing clouds.6 mph82%30.18 "HgN/A
3:20 PM59 °FPassing clouds.5 mph72%30.18 "HgN/A
2:50 PM63 °FPassing clouds.5 mph68%30.18 "HgN/A
2:20 PM61 °FPassing clouds.5 mph68%30.18 "HgN/A
1:50 PM61 °FPassing clouds.6 mph68%30.18 "HgN/A
1:20 PM59 °FPassing clouds.6 mph72%30.18 "HgN/A
12:50 PM59 °FPassing clouds.8 mph77%30.18 "HgN/A
12:20 PM59 °FPassing clouds.8 mph77%30.18 "HgN/A
11:50 AM57 °FPassing clouds.7 mph77%30.18 "HgN/A
11:20 AM55 °FPassing clouds.5 mph82%30.18 "HgN/A
10:50 AM55 °FSprinkles. Partly sunny.3 mph82%30.18 "HgN/A
10:20 AM54 °FScattered showers. Partly sunny.No wind88%30.18 "HgN/A
9:50 AM52 °FSprinkles. Broken clouds.2 mph100%30.18 "HgN/A
9:20 AM54 °FRain showers. Partly sunny.5 mph94%30.15 "Hg6 mi
8:50 AM54 °FSprinkles. Broken clouds.2 mph94%30.15 "HgN/A
8:20 AM54 °FScattered showers. Scattered clouds.2 mph88%30.15 "HgN/A
7:50 AM54 °FScattered showers. Passing clouds.2 mph88%30.12 "HgN/A
7:20 AM54 °FSprinkles. Passing clouds.2 mph88%30.12 "HgN/A
6:50 AM54 °FPassing clouds.No wind88%30.12 "HgN/A
6:20 AM54 °FPassing clouds.3 mph88%30.12 "HgN/A
5:50 AM54 °FPassing clouds.No wind82%30.12 "HgN/A
5:20 AM54 °FPassing clouds.No wind88%30.12 "HgN/A
4:50 AM54 °FPassing clouds.2 mph82%30.09 "HgN/A
4:20 AM54 °FPassing clouds.No wind82%30.09 "HgN/A
Weather by CustomWeather, © 2015

See weather overviewHow to use our weather pages